Year,Month,Day,Hour,Minute,Value (Times are PST for temperature in C)
2016,08,20,00,00,17.00
2016,08,20,00,01,17.00
2016,08,20,00,02,16.90
2016,08,20,00,03,16.90
2016,08,20,00,04,16.90
2016,08,20,00,05,16.80
2016,08,20,00,06,16.80
2016,08,20,00,07,16.80
2016,08,20,00,08,16.70
2016,08,20,00,09,16.70
2016,08,20,00,10,16.70
2016,08,20,00,11,16.60
2016,08,20,00,12,16.60
2016,08,20,00,13,16.60
2016,08,20,00,14,16.60
2016,08,20,00,15,16.50
2016,08,20,00,16,16.50
2016,08,20,00,17,16.50
2016,08,20,00,18,16.50
2016,08,20,00,19,16.60
2016,08,20,00,20,16.60
2016,08,20,00,21,16.60
2016,08,20,00,22,16.60
2016,08,20,00,23,16.60
2016,08,20,00,24,16.60
2016,08,20,00,25,16.50
2016,08,20,00,26,16.50
2016,08,20,00,27,16.50
2016,08,20,00,28,16.40
2016,08,20,00,29,16.40
2016,08,20,00,30,16.40
2016,08,20,00,31,16.30
2016,08,20,00,32,16.30
2016,08,20,00,33,16.30
2016,08,20,00,34,16.20
2016,08,20,00,35,16.20
2016,08,20,00,36,16.10
2016,08,20,00,37,16.00
2016,08,20,00,38,16.00
2016,08,20,00,39,15.90
2016,08,20,00,40,15.80
2016,08,20,00,41,15.80
2016,08,20,00,42,15.70
2016,08,20,00,43,15.70
2016,08,20,00,44,15.60
2016,08,20,00,45,15.60
2016,08,20,00,46,15.60
2016,08,20,00,47,15.60
2016,08,20,00,48,15.70
2016,08,20,00,49,15.70
2016,08,20,00,50,15.80
2016,08,20,00,51,15.80
2016,08,20,00,52,15.80
2016,08,20,00,53,15.80
2016,08,20,00,54,15.70
2016,08,20,00,55,15.70
2016,08,20,00,56,15.70
2016,08,20,00,57,15.60
2016,08,20,00,58,15.60
2016,08,20,00,59,15.60
2016,08,20,01,00,15.60
2016,08,20,01,01,15.70
2016,08,20,01,02,15.80
2016,08,20,01,03,15.90
2016,08,20,01,04,16.00
2016,08,20,01,05,16.30
2016,08,20,01,06,16.60
2016,08,20,01,07,16.80
2016,08,20,01,08,17.20
2016,08,20,01,09,17.40
2016,08,20,01,10,17.70
2016,08,20,01,11,18.00
2016,08,20,01,12,18.20
2016,08,20,01,13,18.30
2016,08,20,01,14,18.50
2016,08,20,01,15,18.60
2016,08,20,01,16,18.60
2016,08,20,01,17,18.50
2016,08,20,01,18,18.50
2016,08,20,01,19,18.40
2016,08,20,01,20,18.40
2016,08,20,01,21,18.40
2016,08,20,01,22,18.40
2016,08,20,01,23,18.30
2016,08,20,01,24,18.40
2016,08,20,01,25,18.30
2016,08,20,01,26,18.30
2016,08,20,01,27,18.20
2016,08,20,01,28,18.20
2016,08,20,01,29,18.20
2016,08,20,01,30,18.10
2016,08,20,01,31,18.10
2016,08,20,01,32,18.00
2016,08,20,01,33,17.90
2016,08,20,01,34,17.90
2016,08,20,01,35,17.80
2016,08,20,01,36,17.70
2016,08,20,01,37,17.60
2016,08,20,01,38,17.50
2016,08,20,01,39,17.40
2016,08,20,01,40,17.30
2016,08,20,01,41,17.30
2016,08,20,01,42,17.20
2016,08,20,01,43,17.20
2016,08,20,01,44,17.10
2016,08,20,01,45,17.10
2016,08,20,01,46,17.10
2016,08,20,01,47,17.00
2016,08,20,01,48,17.00
2016,08,20,01,49,16.90
2016,08,20,01,50,16.80
2016,08,20,01,51,16.80
2016,08,20,01,52,16.70
2016,08,20,01,53,16.70
2016,08,20,01,54,16.60
2016,08,20,01,55,16.60
2016,08,20,01,56,16.50
2016,08,20,01,57,16.40
2016,08,20,01,58,16.40
2016,08,20,01,59,16.40
2016,08,20,02,00,16.50
2016,08,20,02,01,16.50
2016,08,20,02,02,16.50
2016,08,20,02,03,16.50
2016,08,20,02,04,16.50
2016,08,20,02,05,16.50
2016,08,20,02,06,16.40
2016,08,20,02,07,16.40
2016,08,20,02,08,16.30
2016,08,20,02,09,16.20
2016,08,20,02,10,16.20
2016,08,20,02,11,16.10
2016,08,20,02,12,16.20
2016,08,20,02,13,16.20
2016,08,20,02,14,16.20
2016,08,20,02,15,16.20
2016,08,20,02,16,16.20
2016,08,20,02,17,16.20
2016,08,20,02,18,16.20
2016,08,20,02,19,16.20
2016,08,20,02,20,16.20
2016,08,20,02,21,16.20
2016,08,20,02,22,16.20
2016,08,20,02,23,16.10
2016,08,20,02,24,16.10
2016,08,20,02,25,16.00
2016,08,20,02,26,16.00
2016,08,20,02,27,16.10
2016,08,20,02,28,16.30
2016,08,20,02,29,16.50
2016,08,20,02,30,16.60
2016,08,20,02,31,16.80
2016,08,20,02,32,16.90
2016,08,20,02,33,17.00
2016,08,20,02,34,17.10
2016,08,20,02,35,17.10
2016,08,20,02,36,17.10
2016,08,20,02,37,17.10
2016,08,20,02,38,17.10
2016,08,20,02,39,17.10
2016,08,20,02,40,17.10
2016,08,20,02,41,17.10
2016,08,20,02,42,17.10
2016,08,20,02,43,17.10
2016,08,20,02,44,17.00
2016,08,20,02,45,17.00
2016,08,20,02,46,17.00
2016,08,20,02,47,17.00
2016,08,20,02,48,17.00
2016,08,20,02,49,17.10
2016,08,20,02,50,17.10
2016,08,20,02,51,17.10
2016,08,20,02,52,17.10
2016,08,20,02,53,17.10
2016,08,20,02,54,17.00
2016,08,20,02,55,17.00
2016,08,20,02,56,16.90
2016,08,20,02,57,16.90
2016,08,20,02,58,16.80
2016,08,20,02,59,16.80
2016,08,20,03,00,16.70
2016,08,20,03,01,16.70
2016,08,20,03,02,16.70
2016,08,20,03,03,16.60
2016,08,20,03,04,16.60
2016,08,20,03,05,16.50
2016,08,20,03,06,16.40
2016,08,20,03,07,16.40
2016,08,20,03,08,16.40
2016,08,20,03,09,16.30
2016,08,20,03,10,16.30
2016,08,20,03,11,16.30
2016,08,20,03,12,16.30
2016,08,20,03,13,16.20
2016,08,20,03,14,16.20
2016,08,20,03,15,16.20
2016,08,20,03,16,16.20
2016,08,20,03,17,16.20
2016,08,20,03,18,16.20
2016,08,20,03,19,16.20
2016,08,20,03,20,16.20
2016,08,20,03,21,16.20
2016,08,20,03,22,16.20
2016,08,20,03,23,16.20
2016,08,20,03,24,16.20
2016,08,20,03,25,16.20
2016,08,20,03,26,16.10
2016,08,20,03,27,16.10
2016,08,20,03,28,16.10
2016,08,20,03,29,16.10
2016,08,20,03,30,16.00
2016,08,20,03,31,16.00
2016,08,20,03,32,16.00
2016,08,20,03,33,16.00
2016,08,20,03,34,15.90
2016,08,20,03,35,15.90
2016,08,20,03,36,15.90
2016,08,20,03,37,15.90
2016,08,20,03,38,15.80
2016,08,20,03,39,15.80
2016,08,20,03,40,15.80
2016,08,20,03,41,15.80
2016,08,20,03,42,15.80
2016,08,20,03,43,15.70
2016,08,20,03,44,15.70
2016,08,20,03,45,15.70
2016,08,20,03,46,15.60
2016,08,20,03,47,15.60
2016,08,20,03,48,15.60
2016,08,20,03,49,15.60
2016,08,20,03,50,15.60
2016,08,20,03,51,15.60
2016,08,20,03,52,15.70
2016,08,20,03,53,15.70
2016,08,20,03,54,15.80
2016,08,20,03,55,15.80
2016,08,20,03,56,15.80
2016,08,20,03,57,15.90
2016,08,20,03,58,16.00
2016,08,20,03,59,16.00
2016,08,20,04,00,16.10
2016,08,20,04,01,16.30
2016,08,20,04,02,16.40
2016,08,20,04,03,16.40
2016,08,20,04,04,16.30
2016,08,20,04,05,16.30
2016,08,20,04,06,16.30
2016,08,20,04,07,16.40
2016,08,20,04,08,16.60
2016,08,20,04,09,16.70
2016,08,20,04,10,16.90
2016,08,20,04,11,17.10
2016,08,20,04,12,17.40
2016,08,20,04,13,17.60
2016,08,20,04,14,17.80
2016,08,20,04,15,18.00
2016,08,20,04,16,18.10
2016,08,20,04,17,18.20
2016,08,20,04,18,18.30
2016,08,20,04,19,18.30
2016,08,20,04,20,18.30
2016,08,20,04,21,18.30
2016,08,20,04,22,18.30
2016,08,20,04,23,18.30
2016,08,20,04,24,18.30
2016,08,20,04,25,18.30
2016,08,20,04,26,18.30
2016,08,20,04,27,18.30
2016,08,20,04,28,18.20
2016,08,20,04,29,18.10
2016,08,20,04,30,18.00
2016,08,20,04,31,17.90
2016,08,20,04,32,17.80
2016,08,20,04,33,17.70
2016,08,20,04,34,17.60
2016,08,20,04,35,17.50
2016,08,20,04,36,17.30
2016,08,20,04,37,17.20
2016,08,20,04,38,17.10
2016,08,20,04,39,17.10
2016,08,20,04,40,17.00
2016,08,20,04,41,16.90
2016,08,20,04,42,16.80
2016,08,20,04,43,16.80
2016,08,20,04,44,16.70
2016,08,20,04,45,16.70
2016,08,20,04,46,16.70
2016,08,20,04,47,16.70
2016,08,20,04,48,16.70
2016,08,20,04,49,16.70
2016,08,20,04,50,16.70
2016,08,20,04,51,16.70
2016,08,20,04,52,16.70
2016,08,20,04,53,16.80
2016,08,20,04,54,16.80
2016,08,20,04,55,16.80
2016,08,20,04,56,16.70
2016,08,20,04,57,16.70
2016,08,20,04,58,16.70
2016,08,20,04,59,16.60
2016,08,20,05,00,16.50
2016,08,20,05,01,16.40
2016,08,20,05,02,16.40
2016,08,20,05,03,16.30
2016,08,20,05,04,16.20
2016,08,20,05,05,16.10
2016,08,20,05,06,16.00
2016,08,20,05,07,16.00
2016,08,20,05,08,15.90
2016,08,20,05,09,15.80
2016,08,20,05,10,15.70
2016,08,20,05,11,15.70
2016,08,20,05,12,15.60
2016,08,20,05,13,15.60
2016,08,20,05,14,15.50
2016,08,20,05,15,15.50
2016,08,20,05,16,15.40
2016,08,20,05,17,15.40
2016,08,20,05,18,15.40
2016,08,20,05,19,15.30
2016,08,20,05,20,15.30
2016,08,20,05,21,15.30
2016,08,20,05,22,15.30
2016,08,20,05,23,15.30
2016,08,20,05,24,15.20
2016,08,20,05,25,15.20
2016,08,20,05,26,15.20
2016,08,20,05,27,15.10
2016,08,20,05,28,15.10
2016,08,20,05,29,15.10
2016,08,20,05,30,15.00
2016,08,20,05,31,14.90
2016,08,20,05,32,14.90
2016,08,20,05,33,14.90
2016,08,20,05,34,14.80
2016,08,20,05,35,14.80
2016,08,20,05,36,14.70
2016,08,20,05,37,14.70
2016,08,20,05,38,14.70
2016,08,20,05,39,14.60
2016,08,20,05,40,14.60
2016,08,20,05,41,14.60
2016,08,20,05,42,14.60
2016,08,20,05,43,14.60
2016,08,20,05,44,14.60
2016,08,20,05,45,14.50
2016,08,20,05,46,14.50
2016,08,20,05,47,14.50
2016,08,20,05,48,14.40
2016,08,20,05,49,14.40
2016,08,20,05,50,14.30
2016,08,20,05,51,14.30
2016,08,20,05,52,14.30
2016,08,20,05,53,14.20
2016,08,20,05,54,14.20
2016,08,20,05,55,14.20
2016,08,20,05,56,14.20
2016,08,20,05,57,14.10
2016,08,20,05,58,14.10
2016,08,20,05,59,14.10
2016,08,20,06,00,14.10
2016,08,20,06,01,14.00
2016,08,20,06,02,14.00
2016,08,20,06,03,14.00
2016,08,20,06,04,13.90
2016,08,20,06,05,13.90
2016,08,20,06,06,13.90
2016,08,20,06,07,13.90
2016,08,20,06,08,14.00
2016,08,20,06,09,14.00
2016,08,20,06,10,14.10
2016,08,20,06,11,14.20
2016,08,20,06,12,14.20
2016,08,20,06,13,14.20
2016,08,20,06,14,14.20
2016,08,20,06,15,14.20
2016,08,20,06,16,14.10
2016,08,20,06,17,14.10
2016,08,20,06,18,14.10
2016,08,20,06,19,14.10
2016,08,20,06,20,14.10
2016,08,20,06,21,14.10
2016,08,20,06,22,14.10
2016,08,20,06,23,14.10
2016,08,20,06,24,14.10
2016,08,20,06,25,14.20
2016,08,20,06,26,14.30
2016,08,20,06,27,14.30
2016,08,20,06,28,14.30
2016,08,20,06,29,14.30
2016,08,20,06,30,14.30
2016,08,20,06,31,14.30
2016,08,20,06,32,14.30
2016,08,20,06,33,14.30
2016,08,20,06,34,14.30
2016,08,20,06,35,14.20
2016,08,20,06,36,14.20
2016,08,20,06,37,14.20
2016,08,20,06,38,14.20
2016,08,20,06,39,14.10
2016,08,20,06,40,14.00
2016,08,20,06,41,14.00
2016,08,20,06,42,14.00
2016,08,20,06,43,14.00
2016,08,20,06,44,14.00
2016,08,20,06,45,14.10
2016,08,20,06,46,14.10
2016,08,20,06,47,14.20
2016,08,20,06,48,14.30
2016,08,20,06,49,14.30
2016,08,20,06,50,14.40
2016,08,20,06,51,14.60
2016,08,20,06,52,14.70
2016,08,20,06,53,14.80
2016,08,20,06,54,14.90
2016,08,20,06,55,14.90
2016,08,20,06,56,15.00
2016,08,20,06,57,15.00
2016,08,20,06,58,15.00
2016,08,20,06,59,15.00
2016,08,20,07,00,15.10
2016,08,20,07,01,15.10
2016,08,20,07,02,15.10
2016,08,20,07,03,15.10
2016,08,20,07,04,15.20
2016,08,20,07,05,15.20
2016,08,20,07,06,15.30
2016,08,20,07,07,15.40
2016,08,20,07,08,15.50
2016,08,20,07,09,15.60
2016,08,20,07,10,15.70
2016,08,20,07,11,15.80
2016,08,20,07,12,15.90
2016,08,20,07,13,16.00
2016,08,20,07,14,16.10
2016,08,20,07,15,16.10
2016,08,20,07,16,16.20
2016,08,20,07,17,16.20
2016,08,20,07,18,16.30
2016,08,20,07,19,16.30
2016,08,20,07,20,16.40
2016,08,20,07,21,16.40
2016,08,20,07,22,16.50
2016,08,20,07,23,16.50
2016,08,20,07,24,16.60
2016,08,20,07,25,16.70
2016,08,20,07,26,16.70
2016,08,20,07,27,16.80
2016,08,20,07,28,16.80
2016,08,20,07,29,16.80
2016,08,20,07,30,16.90
2016,08,20,07,31,16.90
2016,08,20,07,32,16.90
2016,08,20,07,33,17.00
2016,08,20,07,34,17.00
2016,08,20,07,35,17.10
2016,08,20,07,36,17.10
2016,08,20,07,37,17.10
2016,08,20,07,38,17.10
2016,08,20,07,39,17.10
2016,08,20,07,40,17.20
2016,08,20,07,41,17.20
2016,08,20,07,42,17.20
2016,08,20,07,43,17.20
2016,08,20,07,44,17.30
2016,08,20,07,45,17.30
2016,08,20,07,46,17.30
2016,08,20,07,47,17.40
2016,08,20,07,48,17.40
2016,08,20,07,49,17.50
2016,08,20,07,50,17.60
2016,08,20,07,51,17.60
2016,08,20,07,52,17.70
2016,08,20,07,53,17.70
2016,08,20,07,54,17.80
2016,08,20,07,55,17.90
2016,08,20,07,56,17.90
2016,08,20,07,57,18.00
2016,08,20,07,58,18.10
2016,08,20,07,59,18.20
2016,08,20,08,00,18.30
2016,08,20,08,01,18.40
2016,08,20,08,02,18.50
2016,08,20,08,03,18.60
2016,08,20,08,04,18.70
2016,08,20,08,05,18.70
2016,08,20,08,06,18.80
2016,08,20,08,07,18.90
2016,08,20,08,08,19.00
2016,08,20,08,09,19.10
2016,08,20,08,10,19.10
2016,08,20,08,11,19.20
2016,08,20,08,12,19.20
2016,08,20,08,13,19.30
2016,08,20,08,14,19.30
2016,08,20,08,15,19.40
2016,08,20,08,16,19.50
2016,08,20,08,17,19.60
2016,08,20,08,18,19.70
2016,08,20,08,19,19.80
2016,08,20,08,20,19.80
2016,08,20,08,21,19.90
2016,08,20,08,22,20.00
2016,08,20,08,23,20.10
2016,08,20,08,24,20.20
2016,08,20,08,25,20.30
2016,08,20,08,26,20.40
2016,08,20,08,27,20.60
2016,08,20,08,28,20.70
2016,08,20,08,29,20.80
2016,08,20,08,30,20.90
2016,08,20,08,31,21.00
2016,08,20,08,32,21.10
2016,08,20,08,33,21.20
2016,08,20,08,34,21.30
2016,08,20,08,35,21.40
2016,08,20,08,36,21.60
2016,08,20,08,37,21.70
2016,08,20,08,38,21.80
2016,08,20,08,39,21.90
2016,08,20,08,40,22.00
2016,08,20,08,41,22.10
2016,08,20,08,42,22.20
2016,08,20,08,43,22.20
2016,08,20,08,44,22.30
2016,08,20,08,45,22.40
2016,08,20,08,46,22.50
2016,08,20,08,47,22.60
2016,08,20,08,48,22.60
2016,08,20,08,49,22.70
2016,08,20,08,50,22.80
2016,08,20,08,51,22.80
2016,08,20,08,52,22.90
2016,08,20,08,53,23.00
2016,08,20,08,54,23.10
2016,08,20,08,55,23.20
2016,08,20,08,56,23.30
2016,08,20,08,57,23.30
2016,08,20,08,58,23.40
2016,08,20,08,59,23.40
2016,08,20,09,00,23.40
2016,08,20,09,01,23.40
2016,08,20,09,02,23.40
2016,08,20,09,03,23.30
2016,08,20,09,04,23.30
2016,08,20,09,05,23.30
2016,08,20,09,06,23.20
2016,08,20,09,07,23.20
2016,08,20,09,08,23.20
2016,08,20,09,09,23.20
2016,08,20,09,10,23.30
2016,08,20,09,11,23.30
2016,08,20,09,12,23.30
2016,08,20,09,13,23.40
2016,08,20,09,14,23.50
2016,08,20,09,15,23.50
2016,08,20,09,16,23.60
2016,08,20,09,17,23.60
2016,08,20,09,18,23.60
2016,08,20,09,19,23.50
2016,08,20,09,20,23.50
2016,08,20,09,21,23.40
2016,08,20,09,22,23.50
2016,08,20,09,23,23.50
2016,08,20,09,24,23.60
2016,08,20,09,25,23.60
2016,08,20,09,26,23.70
2016,08,20,09,27,23.80
2016,08,20,09,28,23.90
2016,08,20,09,29,24.00
2016,08,20,09,30,24.10
2016,08,20,09,31,24.20
2016,08,20,09,32,24.20
2016,08,20,09,33,24.20
2016,08,20,09,34,24.20
2016,08,20,09,35,24.10
2016,08,20,09,36,24.10
2016,08,20,09,37,24.10
2016,08,20,09,38,24.20
2016,08,20,09,39,24.30
2016,08,20,09,40,24.40
2016,08,20,09,41,24.40
2016,08,20,09,42,24.50
2016,08,20,09,43,24.60
2016,08,20,09,44,24.70
2016,08,20,09,45,24.80
2016,08,20,09,46,24.80
2016,08,20,09,47,24.80
2016,08,20,09,48,24.90
2016,08,20,09,49,24.90
2016,08,20,09,50,24.90
2016,08,20,09,51,24.90
2016,08,20,09,52,24.90
2016,08,20,09,53,24.90
2016,08,20,09,54,24.90
2016,08,20,09,55,24.90
2016,08,20,09,56,25.00
2016,08,20,09,57,25.10
2016,08,20,09,58,25.20
2016,08,20,09,59,25.30
2016,08,20,10,00,25.40
2016,08,20,10,01,25.50
2016,08,20,10,02,25.70
2016,08,20,10,03,25.80
2016,08,20,10,04,25.80
2016,08,20,10,05,25.80
2016,08,20,10,06,25.80
2016,08,20,10,07,25.80
2016,08,20,10,08,25.80
2016,08,20,10,09,25.80
2016,08,20,10,10,25.70
2016,08,20,10,11,25.70
2016,08,20,10,12,25.80
2016,08,20,10,13,25.80
2016,08,20,10,14,25.90
2016,08,20,10,15,25.90
2016,08,20,10,16,25.90
2016,08,20,10,17,25.90
2016,08,20,10,18,25.90
2016,08,20,10,19,26.00
2016,08,20,10,20,26.10
2016,08,20,10,21,26.10
2016,08,20,10,22,26.20
2016,08,20,10,23,26.20
2016,08,20,10,24,26.20
2016,08,20,10,25,26.20
2016,08,20,10,26,26.30
2016,08,20,10,27,26.30
2016,08,20,10,28,26.30
2016,08,20,10,29,26.40
2016,08,20,10,30,26.40
2016,08,20,10,31,26.40
2016,08,20,10,32,26.40
2016,08,20,10,33,26.50
2016,08,20,10,34,26.60
2016,08,20,10,35,26.50
2016,08,20,10,36,26.40
2016,08,20,10,37,26.30
2016,08,20,10,38,26.10
2016,08,20,10,39,25.90
2016,08,20,10,40,25.70
2016,08,20,10,41,25.60
2016,08,20,10,42,25.50
2016,08,20,10,43,25.40
2016,08,20,10,44,25.30
2016,08,20,10,45,25.20
2016,08,20,10,46,25.20
2016,08,20,10,47,25.20
2016,08,20,10,48,25.30
2016,08,20,10,49,25.40
2016,08,20,10,50,25.60
2016,08,20,10,51,25.80
2016,08,20,10,52,25.90
2016,08,20,10,53,25.90
2016,08,20,10,54,25.80
2016,08,20,10,55,25.80
2016,08,20,10,56,25.80
2016,08,20,10,57,25.80
2016,08,20,10,58,25.80
2016,08,20,10,59,25.90
2016,08,20,11,00,26.00
2016,08,20,11,01,26.20
2016,08,20,11,02,26.20
2016,08,20,11,03,26.30
2016,08,20,11,04,26.30
2016,08,20,11,05,26.20
2016,08,20,11,06,26.20
2016,08,20,11,07,26.10
2016,08,20,11,08,26.00
2016,08,20,11,09,26.00
2016,08,20,11,10,26.00
2016,08,20,11,11,26.10
2016,08,20,11,12,26.10
2016,08,20,11,13,26.20
2016,08,20,11,14,26.20
2016,08,20,11,15,26.40
2016,08,20,11,16,26.60
2016,08,20,11,17,26.80
2016,08,20,11,18,26.90
2016,08,20,11,19,27.00
2016,08,20,11,20,27.00
2016,08,20,11,21,27.00
2016,08,20,11,22,26.90
2016,08,20,11,23,26.80
2016,08,20,11,24,26.70
2016,08,20,11,25,26.60
2016,08,20,11,26,26.50
2016,08,20,11,27,26.40
2016,08,20,11,28,26.40
2016,08,20,11,29,26.40
2016,08,20,11,30,26.50
2016,08,20,11,31,26.60
2016,08,20,11,32,26.70
2016,08,20,11,33,26.70
2016,08,20,11,34,26.80
2016,08,20,11,35,27.00
2016,08,20,11,36,27.00
2016,08,20,11,37,27.10
2016,08,20,11,38,27.30
2016,08,20,11,39,27.30
2016,08,20,11,40,27.40
2016,08,20,11,41,27.40
2016,08,20,11,42,27.50
2016,08,20,11,43,27.60
2016,08,20,11,44,27.70
2016,08,20,11,45,27.80
2016,08,20,11,46,27.70
2016,08,20,11,47,27.60
2016,08,20,11,48,27.50
2016,08,20,11,49,27.50
2016,08,20,11,50,27.50
2016,08,20,11,51,27.40
2016,08,20,11,52,27.30
2016,08,20,11,53,27.30
2016,08,20,11,54,27.20
2016,08,20,11,55,27.20
2016,08,20,11,56,27.30
2016,08,20,11,57,27.30
2016,08,20,11,58,27.30
2016,08,20,11,59,27.30
2016,08,20,12,00,27.30
2016,08,20,12,01,27.50
2016,08,20,12,02,27.60
2016,08,20,12,03,27.80
2016,08,20,12,04,27.80
2016,08,20,12,05,27.80
2016,08,20,12,06,27.80
2016,08,20,12,07,27.80
2016,08,20,12,08,27.80
2016,08,20,12,09,27.70
2016,08,20,12,10,27.80
2016,08,20,12,11,27.80
2016,08,20,12,12,27.90
2016,08,20,12,13,27.90
2016,08,20,12,14,28.00
2016,08,20,12,15,28.10
2016,08,20,12,16,28.20
2016,08,20,12,17,28.30
2016,08,20,12,18,28.40
2016,08,20,12,19,28.50
2016,08,20,12,20,28.60
2016,08,20,12,21,28.80
2016,08,20,12,22,28.90
2016,08,20,12,23,29.10
2016,08,20,12,24,29.20
2016,08,20,12,25,29.30
2016,08,20,12,26,29.30
2016,08,20,12,27,29.30
2016,08,20,12,28,29.40
2016,08,20,12,29,29.40
2016,08,20,12,30,29.40
2016,08,20,12,31,29.30
2016,08,20,12,32,29.20
2016,08,20,12,33,29.00
2016,08,20,12,34,28.80
2016,08,20,12,35,28.60
2016,08,20,12,36,28.50
2016,08,20,12,37,28.50
2016,08,20,12,38,28.60
2016,08,20,12,39,28.70
2016,08,20,12,40,28.80
2016,08,20,12,41,28.80
2016,08,20,12,42,28.80
2016,08,20,12,43,28.90
2016,08,20,12,44,29.00
2016,08,20,12,45,29.10
2016,08,20,12,46,29.10
2016,08,20,12,47,29.10
2016,08,20,12,48,29.10
2016,08,20,12,49,29.20
2016,08,20,12,50,29.30
2016,08,20,12,51,29.30
2016,08,20,12,52,29.20
2016,08,20,12,53,29.00
2016,08,20,12,54,28.80
2016,08,20,12,55,28.70
2016,08,20,12,56,28.70
2016,08,20,12,57,28.70
2016,08,20,12,58,28.70
2016,08,20,12,59,28.70
2016,08,20,13,00,28.80
2016,08,20,13,01,28.80
2016,08,20,13,02,28.90
2016,08,20,13,03,29.10
2016,08,20,13,04,29.20
2016,08,20,13,05,29.20
2016,08,20,13,06,29.30
2016,08,20,13,07,29.30
2016,08,20,13,08,29.20
2016,08,20,13,09,29.10
2016,08,20,13,10,29.10
2016,08,20,13,11,29.10
2016,08,20,13,12,29.10
2016,08,20,13,13,29.10
2016,08,20,13,14,29.10
2016,08,20,13,15,29.20
2016,08,20,13,16,29.30
2016,08,20,13,17,29.50
2016,08,20,13,18,29.60
2016,08,20,13,19,29.70
2016,08,20,13,20,29.60
2016,08,20,13,21,29.30
2016,08,20,13,22,29.00
2016,08,20,13,23,28.80
2016,08,20,13,24,28.70
2016,08,20,13,25,28.60
2016,08,20,13,26,28.60
2016,08,20,13,27,28.50
2016,08,20,13,28,28.50
2016,08,20,13,29,28.40
2016,08,20,13,30,28.20
2016,08,20,13,31,28.10
2016,08,20,13,32,28.10
2016,08,20,13,33,27.90
2016,08,20,13,34,27.80
2016,08,20,13,35,27.80
2016,08,20,13,36,27.80
2016,08,20,13,37,28.00
2016,08,20,13,38,28.10
2016,08,20,13,39,28.10
2016,08,20,13,40,28.10
2016,08,20,13,41,28.20
2016,08,20,13,42,28.40
2016,08,20,13,43,28.50
2016,08,20,13,44,28.60
2016,08,20,13,45,28.70
2016,08,20,13,46,28.70
2016,08,20,13,47,28.90
2016,08,20,13,48,29.00
2016,08,20,13,49,29.20
2016,08,20,13,50,29.30
2016,08,20,13,51,29.30
2016,08,20,13,52,29.40
2016,08,20,13,53,29.30
2016,08,20,13,54,29.20
2016,08,20,13,55,29.10
2016,08,20,13,56,29.10
2016,08,20,13,57,29.10
2016,08,20,13,58,29.20
2016,08,20,13,59,29.40
2016,08,20,14,00,29.50
2016,08,20,14,01,29.40
2016,08,20,14,02,29.30
2016,08,20,14,03,29.20
2016,08,20,14,04,29.10
2016,08,20,14,05,29.00
2016,08,20,14,06,29.00
2016,08,20,14,07,28.90
2016,08,20,14,08,28.90
2016,08,20,14,09,28.90
2016,08,20,14,10,29.00
2016,08,20,14,11,29.20
2016,08,20,14,12,29.30
2016,08,20,14,13,29.40
2016,08,20,14,14,29.60
2016,08,20,14,15,29.60
2016,08,20,14,16,29.70
2016,08,20,14,17,29.70
2016,08,20,14,18,29.70
2016,08,20,14,19,29.60
2016,08,20,14,20,29.50
2016,08,20,14,21,29.50
2016,08,20,14,22,29.60
2016,08,20,14,23,29.60
2016,08,20,14,24,29.80
2016,08,20,14,25,29.80
2016,08,20,14,26,29.90
2016,08,20,14,27,30.00
2016,08,20,14,28,30.10
2016,08,20,14,29,30.20
2016,08,20,14,30,30.30
2016,08,20,14,31,30.30
2016,08,20,14,32,30.10
2016,08,20,14,33,30.00
2016,08,20,14,34,29.90
2016,08,20,14,35,30.00
2016,08,20,14,36,30.10
2016,08,20,14,37,30.10
2016,08,20,14,38,30.10
2016,08,20,14,39,30.20
2016,08,20,14,40,30.20
2016,08,20,14,41,30.20
2016,08,20,14,42,30.20
2016,08,20,14,43,30.30
2016,08,20,14,44,30.30
2016,08,20,14,45,30.20
2016,08,20,14,46,30.20
2016,08,20,14,47,30.30
2016,08,20,14,48,30.30
2016,08,20,14,49,30.30
2016,08,20,14,50,30.40
2016,08,20,14,51,30.40
2016,08,20,14,52,30.40
2016,08,20,14,53,30.50
2016,08,20,14,54,30.50
2016,08,20,14,55,30.50
2016,08,20,14,56,30.60
2016,08,20,14,57,30.60
2016,08,20,14,58,30.70
2016,08,20,14,59,30.70
2016,08,20,15,00,30.80
2016,08,20,15,01,30.70
2016,08,20,15,02,30.70
2016,08,20,15,03,30.60
2016,08,20,15,04,30.60
2016,08,20,15,05,30.60
2016,08,20,15,06,30.50
2016,08,20,15,07,30.50
2016,08,20,15,08,30.50
2016,08,20,15,09,30.60
2016,08,20,15,10,30.60
2016,08,20,15,11,30.60
2016,08,20,15,12,30.60
2016,08,20,15,13,30.50
2016,08,20,15,14,30.40
2016,08,20,15,15,30.40
2016,08,20,15,16,30.30
2016,08,20,15,17,30.30
2016,08,20,15,18,30.30
2016,08,20,15,19,30.20
2016,08,20,15,20,30.30
2016,08,20,15,21,30.30
2016,08,20,15,22,30.40
2016,08,20,15,23,30.50
2016,08,20,15,24,30.50
2016,08,20,15,25,30.60
2016,08,20,15,26,30.70
2016,08,20,15,27,30.80
2016,08,20,15,28,30.80
2016,08,20,15,29,30.90
2016,08,20,15,30,30.90
2016,08,20,15,31,30.70
2016,08,20,15,32,30.60
2016,08,20,15,33,30.60
2016,08,20,15,34,30.60
2016,08,20,15,35,30.60
2016,08,20,15,36,30.60
2016,08,20,15,37,30.60
2016,08,20,15,38,30.60
2016,08,20,15,39,30.60
2016,08,20,15,40,30.60
2016,08,20,15,41,30.60
2016,08,20,15,42,30.60
2016,08,20,15,43,30.50
2016,08,20,15,44,30.50
2016,08,20,15,45,30.60
2016,08,20,15,46,30.60
2016,08,20,15,47,30.70
2016,08,20,15,48,30.70
2016,08,20,15,49,30.70
2016,08,20,15,50,30.70
2016,08,20,15,51,30.70
2016,08,20,15,52,30.70
2016,08,20,15,53,30.70
2016,08,20,15,54,30.70
2016,08,20,15,55,30.70
2016,08,20,15,56,30.60
2016,08,20,15,57,30.50
2016,08,20,15,58,30.40
2016,08,20,15,59,30.30
2016,08,20,16,00,30.20
2016,08,20,16,01,30.20
2016,08,20,16,02,30.10
2016,08,20,16,03,30.00
2016,08,20,16,04,29.90
2016,08,20,16,05,29.80
2016,08,20,16,06,29.80
2016,08,20,16,07,29.80
2016,08,20,16,08,29.80
2016,08,20,16,09,29.90
2016,08,20,16,10,29.90
2016,08,20,16,11,30.00
2016,08,20,16,12,30.10
2016,08,20,16,13,30.10
2016,08,20,16,14,30.10
2016,08,20,16,15,30.20
2016,08,20,16,16,30.20
2016,08,20,16,17,30.30
2016,08,20,16,18,30.40
2016,08,20,16,19,30.50
2016,08,20,16,20,30.50
2016,08,20,16,21,30.50
2016,08,20,16,22,30.40
2016,08,20,16,23,30.40
2016,08,20,16,24,30.40
2016,08,20,16,25,30.20
2016,08,20,16,26,29.90
2016,08,20,16,27,29.60
2016,08,20,16,28,29.40
2016,08,20,16,29,29.20
2016,08,20,16,30,29.00
2016,08,20,16,31,28.80
2016,08,20,16,32,28.70
2016,08,20,16,33,28.50
2016,08,20,16,34,28.40
2016,08,20,16,35,28.40
2016,08,20,16,36,28.40
2016,08,20,16,37,28.50
2016,08,20,16,38,28.50
2016,08,20,16,39,28.50
2016,08,20,16,40,28.40
2016,08,20,16,41,28.30
2016,08,20,16,42,28.20
2016,08,20,16,43,28.20
2016,08,20,16,44,28.20
2016,08,20,16,45,28.20
2016,08,20,16,46,28.20
2016,08,20,16,47,28.10
2016,08,20,16,48,27.90
2016,08,20,16,49,27.80
2016,08,20,16,50,27.80
2016,08,20,16,51,27.90
2016,08,20,16,52,27.90
2016,08,20,16,53,28.00
2016,08,20,16,54,28.00
2016,08,20,16,55,28.10
2016,08,20,16,56,28.10
2016,08,20,16,57,28.10
2016,08,20,16,58,28.00
2016,08,20,16,59,27.90
2016,08,20,17,00,27.80
2016,08,20,17,01,27.50
2016,08,20,17,02,27.20
2016,08,20,17,03,27.10
2016,08,20,17,04,26.90
2016,08,20,17,05,26.80
2016,08,20,17,06,26.70
2016,08,20,17,07,26.60
2016,08,20,17,08,26.40
2016,08,20,17,09,26.40
2016,08,20,17,10,26.40
2016,08,20,17,11,26.40
2016,08,20,17,12,26.40
2016,08,20,17,13,26.50
2016,08,20,17,14,26.40
2016,08,20,17,15,26.40
2016,08,20,17,16,26.30
2016,08,20,17,17,26.30
2016,08,20,17,18,26.30
2016,08,20,17,19,26.20